Location: Casilda
(33.0440°S, 61.1680°W)
Time: 10:36:03
(UTC-03:00)

ISS - Pass Details

Date: 15 October 2019
Orbit: 411 x 421 km, 51.6° (Epoch: 18 October)

Event Time Altitude Azimuth Distance (km) Brightness Sun altitude
Exits shadow 05:21:54 - 222° (SW) 2,404 -0.1 -13.5°
Rises 05:21:55 0° 222° (SW) 2,397 -0.1 -13.4°
Reaches altitude 10° 05:24:04 10° 216° (SW) 1,526 -1.1 -13.0°
Maximum altitude 05:27:25 51° 139° (SE) 548 -2.8 -12.4°
Drops below altitude 10° 05:30:45 10° 61° (ENE) 1,512 -0.3 -11.7°
Sets 05:32:52 0° 56° (NE) 2,370 0.6 -11.3°
